Temp
-32 -32 -33 -34 -34 -34 -34 -34 -34 -34 -33 -34 -34 -33 -33 -32 -32 -32 -31 -31 -31 -30 -30 -30 -29 -30 -30 -29 -29 -28 -28 -28 -27 -27 -26 -26 -25 -25 -24 -24 -23 -23 -24 -23 -23 -22 -21 -21 -21 -21 -21 -20 -20 -21
-31 -32 -33 -34 -34 -34 -34 -34 -34 -34 -34 -34 -34 -33 -33 -33 -32 -32 -32 -31 -31 -30 -30 -30 -29 -29 -29 -30 -29 -29 -28 -28 -28 -27 -27 -26 -26 -25 -25 -24 -23 -23 -23 -22 -22 -21 -21 -21 -21 -21 -21 -21 -21 -21
-31 -32 -32 -34 -34 -34 -34 -34 -34 -34 -34 -34 -34 -34 -33 -33 -33 -33 -32 -32 -31 -31 -30 -30 -30 -30 -29 -30 -29 -29 -28 -27 -28 -27 -27 -27 -26 -26 -25 -24 -24 -24 -23 -22 -22 -22 -22 -22 -21 -21 -21 -21 -21 -22
-31 -31 -32 -32 -33 -34 -34 -34 -34 -34 -34 -33 -33 -33 -33 -33 -33 -33 -32 -32 -31 -30 -30 -30 -30 -30 -30 -29 -28 -28 -28 -28 -28 -27 -27 -27 -26 -26 -25 -25 -24 -23 -23 -23 -22 -22 -22 -21 -21 -21 -21 -22 -22 -22
-30 -31 -31 -32 -32 -32 -33 -33 -33 -33 -33 -33 -33 -33 -33 -33 -33 -33 -32 -32 -31 -30 -30 -30 -29 -29 -29 -29 -28 -28 -28 -27 -27 -27 -27 -27 -26 -26 -25 -25 -24 -24 -23 -23 -23 -23 -22 -21 -21 -22 -22 -22 -22 -22
-30 -30 -30 -31 -32 -32 -32 -32 -33 -33 -33 -33 -33 -33 -33 -33 -32 -32 -32 -32 -31 -31 -30 -30 -29 -29 -29 -28 -27 -27 -27 -27 -27 -27 -27 -26 -26 -26 -25 -24 -24 -23 -23 -23 -22 -22 -22 -22 -22 -22 -22 -22 -23 -23
-30 -30 -30 -31 -31 -31 -32 -32 -32 -32 -33 -33 -33 -33 -32 -32 -32 -32 -32 -31 -31 -30 -30 -30 -29 -28 -28 -27 -27 -27 -27 -27 -26 -26 -26 -26 -26 -25 -24 -24 -24 -23 -23 -23 -23 -22 -22 -22 -22 -22 -23 -23 -23 -24
-30 -30 -30 -31 -31 -31 -32 -32 -32 -33 -33 -33 -33 -33 -32 -32 -32 -32 -31 -31 -31 -30 -30 -29 -28 -28 -27 -27 -26 -26 -26 -26 -26 -26 -25 -25 -25 -24 -24 -24 -24 -23 -23 -23 -22 -22 -23 -23 -23 -23 -23 -24 -24 -24
-29 -30 -30 -30 -31 -31 -31 -32 -32 -33 -33 -33 -32 -32 -31 -30 -31 -31 -31 -31 -30 -30 -28 -28 -27 -27 -27 -26 -25 -25 -25 -25 -25 -25 -25 -24 -25 -24 -24 -24 -24 -23 -23 -22 -22 -23 -23 -24 -24 -24 -24 -24 -24 -24
-29 -29 -29 -30 -30 -31 -31 -31 -32 -33 -33 -33 -32 -31 -30 -30 -30 -30 -30 -30 -29 -28 -27 -27 -28 -27 -26 -25 -25 -25 -25 -25 -25 -25 -25 -24 -24 -24 -24 -24 -24 -23 -23 -23 -23 -24 -24 -24 -24 -24 -24 -24 -24 -25
-28 -29 -29 -29 -30 -30 -31 -31 -32 -32 -32 -32 -31 -31 -31 -31 -30 -30 -30 -29 -28 -27 -27 -27 -27 -26 -26 -25 -25 -25 -25 -25 -24 -24 -24 -24 -24 -24 -24 -24 -23 -23 -23 -24 -24 -24 -24 -24 -24 -25 -25 -25 -25 -25
-29 -29 -29 -29 -29 -30 -31 -31 -32 -32 -32 -31 -31 -31 -31 -30 -30 -29 -29 -28 -28 -27 -27 -27 -26 -26 -26 -25 -25 -25 -25 -25 -24 -24 -24 -24 -24 -24 -24 -24 -24 -24 -24 -25 -24 -25 -25 -25 -25 -25 -25 -25 -25 -25
-28 -28 -28 -29 -29 -30 -31 -31 -31 -32 -32 -31 -31 -31 -30 -30 -28 -27 -27 -27 -27 -27 -27 -27 -26 -26 -26 -26 -25 -25 -25 -24 -24 -24 -24 -24 -23 -24 -24 -24 -24 -25 -25 -25 -25 -25 -25 -25 -25 -25 -25 -25 -26 -26
-27 -27 -28 -28 -29 -30 -30 -31 -31 -31 -31 -30 -29 -30 -29 -27 -27 -27 -27 -27 -27 -27 -26 -26 -26 -26 -25 -25 -25 -24 -24 -24 -24 -24 -24 -23 -24 -24 -25 -25 -25 -25 -25 -25 -25 -25 -25 -25 -25 -25 -25 -26 -26 -26
-28 -28 -29 -29 -29 -30 -31 -31 -30 -30 -31 -31 -30 -29 -27 -26 -27 -27 -27 -27 -26 -26 -26 -25 -25 -25 -25 -25 -25 -25 -24 -24 -24 -25 -25 -25 -25 -25 -25 -25 -25 -25 -25 -25 -25 -25 -25 -25 -25 -26 -26 -26 -26 -26
-27 -27 -28 -29 -29 -29 -30 -31 -31 -30 -30 -29 -28 -27 -27 -27 -27 -27 -27 -27 -26 -26 -26 -25 -25 -25 -25 -25 -25 -25 -25 -24 -25 -25 -26 -25 -25 -25 -25 -25 -25 -25 -25 -25 -25 -25 -25 -26 -26 -26 -26 -26 -26 -27
-27 -27 -27 -28 -28 -29 -29 -29 -28 -28 -28 -28 -27 -27 -26 -26 -26 -26 -26 -26 -25 -25 -25 -25 -25 -25 -25 -25 -25 -25 -25 -25 -26 -25 -25 -25 -25 -25 -25 -26 -26 -26 -26 -26 -26 -26 -26 -26 -26 -26 -26 -26 -27 -27
-27 -27 -27 -27 -27 -27 -28 -28 -28 -27 -27 -27 -26 -27 -27 -27 -26 -26 -26 -26 -25 -25 -25 -25 -25 -25 -25 -25 -25 -25 -26 -26 -25 -25 -25 -25 -25 -25 -26 -26 -26 -26 -26 -26 -26 -26 -26 -26 -26 -26 -27 -27 -27 -27
-27 -27 -27 -27 -27 -27 -27 -27 -27 -27 -27 -26 -26 -26 -26 -26 -26 -26 -26 -25 -25 -25 -25 -25 -25 -25 -25 -25 -26 -26 -26 -26 -26 -26 -26 -26 -26 -26 -26 -26 -26 -26 -26 -26 -26 -26 -26 -26 -26 -26 -27 -27 -27 -27
-27 -27 -27 -27 -27 -27 -27 -27 -26 -26 -26 -27 -26 -26 -26 -26 -25 -25 -25 -25 -25 -25 -25 -25 -25 -26 -26 -26 -26 -26 -26 -26 -26 -26 -26 -26 -26 -26 -26 -26 -26 -26 -26 -26 -26 -26 -26 -26 -27 -27 -27 -27 -27 -28
-27 -27 -27 -27 -27 -27 -27 -27 -27 -27 -27 -27 -26 -26 -25 -25 -25 -25 -24 -24 -24 -25 -25 -26 -26 -26 -26 -26 -26 -26 -26 -26 -26 -26 -26 -26 -26 -26 -26 -26 -27 -27 -27 -27 -27 -27 -27 -27 -27 -27 -27 -28 -28 -28
-27 -27 -27 -26 -27 -27 -27 -27 -27 -27 -26 -25 -25 -25 -25 -25 -25 -25 -24 -25 -25 -25 -26 -26 -26 -27 -27 -27 -27 -26 -26 -26 -26 -26 -26 -26 -26 -26 -27 -27 -27 -27 -27 -27 -27 -27 -27 -27 -27 -28 -28 -28 -28 -29
-26 -26 -26 -26 -27 -26 -26 -26 -26 -26 -26 -26 -25 -25 -25 -25 -25 -25 -26 -26 -26 -27 -27 -27 -27 -27 -27 -27 -27 -27 -26 -26 -26 -26 -26 -27 -27 -27 -27 -27 -27 -27 -28 -28 -28 -28 -28 -28 -28 -28 -28 -29 -29 -29
-27 -27 -27 -27 -27 -27 -27 -27 -27 -26 -26 -27 -27 -26 -26 -26 -26 -26 -27 -27 -27 -27 -27 -27 -27 -27 -27 -27 -27 -27 -27 -27 -27 -27 -27 -27 -27 -27 -27 -28 -28 -28 -28 -28 -28 -28 -28 -28 -29 -29 -29 -29 -29 -30
-27 -27 -27 -27 -27 -28 -28 -28 -27 -27 -27 -27 -27 -27 -27 -27 -27 -27 -27 -27 -27 -27 -27 -27 -28 -28 -28 -27 -27 -27 -27 -27 -27 -27 -28 -28 -28 -28 -28 -28 -28 -28 -29 -29 -29 -29 -29 -29 -29 -29 -29 -30 -30 -30
-28 -28 -28 -28 -28 -28 -28 -28 -28 -28 -28 -27 -27 -27 -27 -27 -27 -27 -28 -28 -28 -28 -28 -28 -28 -28 -28 -27 -27 -28 -28 -28 -28 -28 -28 -28 -28 -28 -29 -29 -29 -30 -30 -30 -30 -30 -30 -30 -30 -30 -30 -30 -31 -31
-29 -29 -29 -29 -29 -28 -28 -28 -28 -28 -28 -28 -28 -28 -28 -28 -28 -28 -28 -28 -28 -28 -28 -28 -28 -28 -28 -28 -28 -28 -28 -28 -28 -28 -29 -29 -29 -30 -30 -30 -30 -30 -30 -30 -30 -30 -30 -31 -31 -31 -32 -32 -32 -33
-30 -29 -29 -29 -29 -29 -29 -29 -29 -29 -28 -28 -28 -28 -28 -28 -28 -28 -28 -28 -28 -28 -28 -28 -28 -28 -28 -28 -28 -28 -29 -29 -29 -30 -30 -30 -31 -30 -30 -30 -30 -30 -30 -31 -31 -32 -32 -32 -32 -32 -32 -33 -33 -33
-31 -30 -30 -30 -30 -30 -30 -29 -29 -29 -29 -29 -29 -29 -29 -29 -29 -29 -28 -28 -29 -29 -29 -29 -29 -29 -29 -29 -29 -30 -30 -30 -31 -31 -31 -31 -31 -30 -31 -31 -31 -31 -31 -32 -32 -32 -32 -32 -32 -32 -33 -34 -34 -33
-31 -31 -31 -31 -31 -31 -31 -31 -30 -30 -30 -29 -29 -29 -29 -29 -29 -29 -29 -29 -29 -29 -29 -29 -29 -30 -30 -30 -31 -31 -31 -31 -31 -31 -31 -31 -31 -31 -31 -31 -32 -32 -32 -32 -33 -33 -33 -33 -33 -33 -34 -34 -34 -33
-32 -32 -32 -32 -32 -32 -32 -31 -31 -31 -31 -31 -31 -30 -30 -30 -30 -30 -30 -30 -30 -30 -30 -30 -30 -31 -31 -31 -31 -31 -31 -31 -31 -31 -31 -32 -32 -32 -32 -32 -32 -33 -33 -33 -33 -33 -33 -33 -33 -34 -34 -34 -33 -33
-32 -32 -32 -32 -33 -33 -32 -32 -32 -32 -32 -32 -31 -31 -32 -32 -31 -31 -31 -31 -31 -31 -31 -32 -32 -32 -32 -32 -32 -32 -32 -32 -32 -32 -32 -32 -32 -32 -32 -32 -33 -33 -33 -33 -33 -33 -33 -33 -34 -34 -34 -33 -33 -33
-33 -34 -33 -33 -33 -33 -33 -33 -33 -33 -33 -32 -32 -32 -32 -32 -32 -32 -32 -32 -32 -32 -32 -32 -32 -32 -32 -32 -32 -32 -32 -32 -32 -32 -32 -32 -32 -32 -33 -33 -33 -33 -33 -33 -33 -33 -33 -34 -34 -34 -33 -33 -33 -33
Height
5333 5330 5327 5325 5327 5331 5338 5344 5350 5355 5360 5364 5369 5375 5381 5387 5393 5398 5405 5410 5417 5429 5436 5440 5444 5451 5456 5461 5467 5477 5481 5486 5492 5497 5504 5511 5516 5523 5528 5534 5540 5545 5549 5552 5554 5557 5564 5568 5569 5571 5572 5572 5572 5572
5325 5322 5318 5316 5320 5326 5333 5340 5345 5350 5354 5358 5362 5368 5373 5380 5385 5391 5399 5406 5413 5422 5428 5435 5439 5444 5450 5455 5462 5468 5477 5483 5488 5492 5499 5503 5508 5513 5520 5524 5530 5535 5540 5543 5548 5551 5555 5556 5560 5562 5560 5562 5563 5562
5321 5320 5316 5316 5320 5325 5331 5336 5341 5345 5349 5352 5356 5362 5368 5374 5381 5387 5392 5400 5408 5415 5425 5430 5436 5441 5445 5451 5456 5463 5472 5473 5479 5484 5490 5494 5498 5505 5511 5516 5519 5523 5529 5533 5537 5543 5546 5548 5551 5552 5553 5553 5552 5552
5317 5318 5317 5317 5319 5323 5328 5334 5338 5342 5345 5349 5353 5358 5364 5369 5375 5381 5388 5393 5401 5411 5419 5427 5431 5435 5441 5445 5452 5458 5463 5468 5473 5477 5481 5486 5493 5499 5503 5506 5509 5516 5519 5524 5528 5532 5536 5539 5540 5543 5543 5543 5543 5542
5315 5315 5316 5318 5320 5323 5327 5331 5334 5338 5342 5346 5350 5356 5361 5367 5373 5379 5384 5391 5399 5408 5415 5422 5426 5433 5437 5443 5448 5453 5458 5462 5466 5471 5472 5478 5484 5491 5496 5501 5504 5510 5513 5516 5520 5522 5525 5531 5535 5534 5534 5534 5534 5534
5311 5313 5314 5316 5319 5322 5325 5329 5333 5336 5340 5345 5350 5354 5360 5365 5371 5378 5386 5393 5399 5406 5413 5421 5426 5429 5434 5438 5443 5448 5452 5454 5459 5464 5468 5473 5478 5484 5490 5494 5502 5504 5507 5510 5514 5517 5520 5522 5525 5526 5526 5526 5526 5526
5305 5308 5311 5315 5318 5321 5324 5328 5332 5337 5341 5346 5350 5355 5360 5366 5374 5383 5389 5396 5403 5409 5415 5421 5424 5428 5431 5435 5440 5444 5447 5451 5456 5458 5461 5468 5471 5479 5484 5488 5494 5499 5502 5505 5508 5510 5513 5516 5517 5518 5518 5519 5520 5519
5299 5302 5307 5312 5317 5321 5325 5329 5333 5338 5342 5347 5352 5356 5362 5367 5373 5382 5390 5397 5404 5408 5411 5415 5421 5426 5430 5433 5435 5439 5443 5447 5452 5454 5459 5463 5467 5474 5479 5485 5491 5495 5497 5500 5503 5505 5508 5509 5510 5511 5513 5514 5513 5512
5294 5298 5302 5307 5314 5320 5325 5330 5335 5339 5344 5349 5354 5359 5366 5373 5378 5387 5393 5398 5403 5408 5410 5415 5420 5426 5428 5430 5433 5437 5442 5446 5449 5452 5455 5460 5465 5470 5476 5480 5485 5490 5492 5495 5497 5499 5502 5504 5504 5506 5508 5507 5507 5506
5288 5293 5299 5304 5311 5319 5326 5332 5337 5342 5346 5351 5356 5365 5371 5377 5383 5390 5397 5400 5404 5407 5412 5418 5421 5423 5426 5430 5434 5438 5443 5446 5449 5453 5457 5459 5464 5466 5471 5476 5480 5484 5487 5489 5492 5494 5498 5498 5500 5502 5501 5501 5500 5499
5279 5287 5295 5303 5310 5318 5327 5334 5339 5343 5346 5353 5361 5369 5374 5381 5386 5391 5395 5402 5405 5411 5416 5419 5421 5424 5427 5432 5436 5440 5444 5447 5450 5454 5456 5458 5461 5464 5467 5472 5477 5481 5484 5486 5488 5490 5493 5495 5496 5496 5495 5495 5493 5492
5271 5282 5293 5302 5309 5318 5327 5334 5339 5344 5352 5360 5369 5376 5380 5385 5390 5394 5399 5404 5409 5413 5417 5421 5424 5427 5431 5435 5440 5443 5444 5446 5449 5452 5454 5455 5458 5461 5465 5470 5474 5477 5479 5482 5485 5487 5489 5490 5490 5490 5489 5488 5487 5485
5270 5282 5293 5303 5312 5320 5328 5336 5344 5351 5357 5362 5368 5377 5384 5389 5393 5398 5403 5410 5413 5416 5421 5424 5427 5430 5433 5435 5438 5440 5443 5446 5449 5450 5451 5453 5455 5458 5462 5466 5470 5473 5476 5480 5482 5484 5485 5485 5485 5484 5483 5481 5479 5477
5282 5291 5300 5307 5316 5325 5333 5342 5349 5355 5361 5367 5374 5381 5387 5392 5397 5404 5410 5413 5416 5419 5423 5427 5430 5433 5435 5437 5439 5442 5445 5446 5447 5448 5449 5451 5454 5456 5460 5464 5468 5471 5475 5477 5479 5480 5480 5480 5479 5478 5476 5475 5473 5471
5298 5304 5310 5318 5325 5334 5342 5348 5354 5361 5367 5374 5380 5385 5390 5396 5403 5409 5414 5416 5419 5422 5426 5429 5432 5434 5435 5437 5439 5441 5443 5444 5445 5446 5448 5451 5454 5457 5461 5464 5467 5470 5472 5474 5475 5475 5475 5474 5473 5472 5471 5469 5467 5466
5320 5321 5325 5331 5337 5343 5350 5358 5365 5369 5375 5380 5386 5392 5399 5405 5410 5414 5417 5419 5422 5425 5427 5430 5432 5434 5434 5436 5438 5440 5441 5442 5443 5446 5449 5452 5455 5458 5460 5463 5465 5467 5468 5469 5469 5470 5469 5468 5467 5466 5464 5463 5461 5459
5340 5343 5343 5348 5354 5360 5365 5369 5374 5381 5387 5392 5397 5402 5406 5409 5413 5415 5417 5420 5423 5425 5427 5429 5431 5433 5434 5435 5436 5438 5439 5441 5443 5446 5449 5452 5454 5456 5458 5460 5462 5463 5464 5464 5464 5464 5463 5461 5460 5459 5457 5455 5453 5451
5358 5356 5359 5363 5367 5372 5376 5381 5386 5389 5393 5397 5401 5405 5409 5412 5414 5416 5418 5420 5422 5423 5425 5427 5429 5430 5431 5432 5433 5435 5438 5441 5444 5446 5448 5451 5453 5455 5456 5457 5458 5459 5459 5459 5459 5458 5456 5455 5454 5453 5451 5448 5446 5443
5371 5370 5372 5374 5377 5379 5382 5386 5390 5394 5398 5402 5405 5407 5409 5411 5413 5416 5417 5419 5420 5421 5423 5425 5426 5426 5427 5428 5429 5432 5436 5439 5442 5445 5447 5449 5451 5452 5453 5454 5455 5455 5455 5454 5453 5452 5450 5449 5447 5445 5442 5439 5436 5433
5377 5379 5380 5382 5384 5387 5390 5393 5395 5398 5401 5404 5405 5407 5408 5410 5412 5413 5415 5417 5418 5419 5420 5422 5423 5424 5426 5428 5430 5433 5436 5438 5441 5442 5444 5446 5448 5449 5449 5450 5450 5449 5449 5448 5447 5445 5443 5441 5439 5436 5433 5430 5427 5424
5382 5385 5387 5388 5390 5392 5394 5396 5398 5400 5401 5403 5404 5406 5408 5410 5411 5412 5413 5414 5415 5416 5417 5419 5420 5422 5424 5427 5429 5432 5434 5436 5437 5439 5441 5442 5443 5444 5444 5444 5444 5443 5442 5440 5439 5437 5434 5432 5429 5427 5424 5421 5417 5414
5387 5388 5389 5391 5392 5393 5395 5396 5398 5399 5402 5402 5404 5405 5406 5407 5408 5409 5410 5410 5411 5412 5413 5415 5417 5419 5422 5425 5427 5429 5431 5432 5433 5435 5436 5436 5437 5438 5438 5437 5436 5435 5434 5432 5430 5427 5425 5423 5420 5417 5414 5410 5407 5404
5388 5389 5389 5390 5392 5393 5395 5395 5397 5397 5399 5399 5400 5402 5402 5403 5403 5404 5405 5406 5407 5408 5410 5412 5414 5416 5419 5421 5423 5425 5426 5427 5428 5429 5429 5430 5430 5431 5430 5429 5428 5426 5425 5422 5420 5418 5416 5413 5410 5407 5403 5400 5397 5393
5387 5387 5388 5389 5390 5391 5391 5392 5392 5393 5394 5394 5395 5396 5397 5397 5398 5399 5400 5402 5404 5406 5408 5409 5411 5413 5415 5417 5418 5419 5420 5421 5422 5423 5423 5423 5423 5422 5421 5420 5418 5417 5415 5413 5411 5409 5406 5403 5400 5396 5393 5389 5386 5382
5384 5384 5385 5385 5385 5386 5386 5387 5387 5388 5389 5389 5389 5390 5391 5392 5393 5395 5397 5398 5400 5401 5403 5405 5407 5409 5410 5411 5412 5413 5414 5414 5415 5415 5415 5414 5414 5413 5411 5410 5409 5407 5406 5404 5402 5399 5397 5393 5389 5386 5382 5378 5374 5370
5378 5379 5380 5379 5379 5380 5381 5381 5382 5382 5383 5384 5385 5386 5386 5387 5388 5390 5393 5393 5395 5397 5398 5400 5401 5402 5403 5403 5404 5405 5406 5406 5406 5406 5406 5405 5404 5403 5403 5402 5401 5399 5397 5395 5392 5389 5386 5382 5378 5374 5369 5365 5361 5357
5375 5375 5374 5374 5374 5373 5374 5374 5374 5375 5376 5377 5378 5379 5380 5380 5382 5385 5386 5387 5388 5389 5390 5392 5393 5394 5395 5395 5396 5396 5397 5397 5397 5397 5397 5397 5396 5395 5395 5394 5392 5390 5387 5384 5381 5377 5373 5369 5365 5361 5357 5354 5351 5348
5368 5368 5368 5368 5367 5367 5367 5367 5367 5367 5368 5368 5370 5370 5371 5372 5375 5377 5378 5379 5379 5381 5382 5383 5385 5385 5386 5387 5388 5388 5388 5389 5389 5389 5389 5389 5388 5387 5386 5385 5382 5379 5376 5372 5368 5365 5361 5358 5355 5351 5347 5344 5342 5340
5357 5357 5358 5358 5358 5358 5359 5359 5359 5359 5359 5360 5360 5361 5362 5363 5364 5366 5367 5369 5370 5371 5373 5374 5375 5376 5377 5378 5378 5379 5380 5381 5381 5381 5381 5380 5379 5378 5376 5374 5372 5369 5366 5362 5359 5355 5351 5347 5343 5340 5337 5335 5334 5332
5345 5345 5345 5346 5346 5347 5347 5348 5349 5349 5349 5349 5350 5352 5353 5354 5355 5356 5357 5359 5360 5361 5363 5364 5365 5366 5367 5369 5370 5371 5372 5372 5372 5372 5372 5371 5370 5368 5366 5363 5360 5357 5354 5351 5347 5343 5339 5335 5332 5329 5328 5327 5325 5323
5333 5332 5332 5331 5332 5332 5332 5334 5335 5336 5338 5338 5339 5340 5341 5342 5344 5345 5347 5348 5350 5351 5353 5354 5355 5357 5359 5360 5361 5362 5363 5364 5363 5363 5362 5361 5360 5358 5355 5352 5349 5346 5342 5339 5335 5331 5327 5324 5322 5321 5320 5319 5317 5315
5322 5320 5318 5316 5316 5316 5316 5317 5319 5322 5324 5326 5328 5330 5331 5332 5334 5336 5337 5339 5340 5342 5343 5345 5347 5348 5350 5351 5352 5353 5354 5354 5354 5354 5353 5351 5349 5347 5345 5342 5338 5335 5330 5325 5321 5318 5316 5314 5314 5313 5313 5311 5309 5307
5308 5304 5302 5300 5301 5301 5300 5300 5302 5304 5308 5310 5313 5316 5318 5320 5323 5327 5328 5329 5331 5332 5334 5335 5337 5338 5339 5340 5341 5343 5344 5344 5344 5343 5343 5341 5339 5337 5334 5331 5327 5322 5318 5314 5311 5309 5308 5307 5307 5306 5305 5303 5301 5298
Wind_Speed
29 30 30 37 36 28 27 28 28 24 24 23 25 28 31 35 33 35 41 46 46 50 40 30 28 33 33 35 40 41 43 44 44 42 39 43 45 47 51 54 59 58 49 46 48 43 41 35 38 39 39 42 39 36
18 19 20 17 17 22 26 27 25 22 22 24 28 29 29 29 30 32 37 45 48 51 41 32 38 34 29 33 31 38 34 42 40 39 38 37 39 37 36 42 46 53 42 40 40 37 37 39 40 41 40 36 36 36
13 11 9 14 16 18 23 22 21 22 21 20 23 28 30 29 31 27 33 44 53 57 45 45 35 35 31 35 30 31 39 26 43 40 39 39 38 31 36 25 26 36 33 31 38 38 35 34 36 34 36 34 32 32
11 11 4 4 13 18 20 22 23 22 22 19 21 26 26 28 31 29 31 33 42 52 47 42 31 34 33 39 33 30 39 43 41 41 37 37 37 37 34 41 29 24 23 24 29 35 38 33 30 30 28 28 31 32
11 9 10 10 12 14 16 17 18 19 20 20 22 24 26 26 23 28 31 35 39 53 56 43 31 30 36 35 35 30 30 31 41 44 43 39 35 33 35 32 41 33 24 25 26 27 25 24 25 27 27 28 29 28
15 13 10 12 15 16 16 16 17 18 18 18 19 22 23 26 24 28 27 31 33 40 46 40 32 28 32 30 29 33 38 30 38 40 39 36 27 29 30 29 30 23 22 24 20 20 21 25 25 25 26 26 25 23
21 20 17 14 13 14 18 18 18 17 18 18 18 20 23 26 25 24 29 28 24 27 26 24 27 30 31 33 29 24 30 36 36 35 36 27 29 27 18 19 23 26 18 21 21 21 22 21 22 23 24 22 20 20
19 20 22 22 17 17 17 18 19 20 19 18 19 18 22 23 26 24 24 23 24 21 20 21 23 30 19 18 23 25 28 32 38 36 29 29 33 22 26 25 26 25 19 19 19 21 20 22 21 19 20 20 20 21
17 20 24 24 26 23 22 21 20 20 20 19 17 17 22 33 33 29 21 18 17 19 24 28 28 13 7 15 19 21 22 17 15 16 18 24 32 30 30 30 26 26 21 18 18 18 22 20 16 17 19 19 20 22
24 23 20 25 28 31 25 22 21 21 20 21 24 31 41 38 29 28 20 9 13 19 28 20 7 5 7 14 25 22 17 16 17 15 17 16 16 17 19 24 28 25 20 14 16 15 16 15 15 17 17 19 21 23
30 28 27 23 30 32 31 26 24 26 23 19 25 47 34 30 32 31 15 22 13 19 17 6 10 13 11 12 18 23 20 17 19 18 19 18 19 19 23 24 22 18 15 14 13 13 13 14 15 16 18 20 21 22
28 35 31 28 26 33 37 32 27 26 23 25 36 40 40 31 26 25 23 21 18 17 12 15 16 13 10 14 14 14 11 13 16 18 13 15 19 19 23 23 20 16 13 11 11 13 14 15 16 17 19 20 21 22
29 36 35 34 30 36 38 33 26 24 21 24 33 40 32 29 28 30 23 19 18 16 19 12 9 12 16 18 16 16 14 12 12 11 11 11 13 17 19 16 12 13 13 13 14 13 13 14 16 17 18 19 20 21
35 33 30 32 33 34 36 29 28 28 30 35 36 33 33 33 32 25 20 17 16 17 16 12 8 8 9 11 13 12 10 9 7 9 12 10 9 12 15 17 16 15 14 13 12 12 13 14 16 17 18 20 21 21
40 38 37 36 35 34 34 33 35 40 40 30 32 35 37 33 25 18 17 17 12 13 11 10 7 5 7 9 10 11 10 9 9 13 12 11 14 16 16 15 13 12 11 10 11 12 13 15 16 17 18 19 21 23
44 43 43 42 40 38 39 41 35 30 35 37 35 32 26 22 17 16 16 13 12 11 10 10 8 9 9 10 8 7 8 9 12 14 15 16 15 13 12 11 10 10 9 10 10 12 14 15 15 17 19 20 22 23
40 40 44 44 44 42 37 32 32 32 31 28 24 21 18 15 16 16 15 15 15 16 19 19 17 15 11 10 9 9 11 14 16 16 16 14 13 13 10 9 9 8 9 10 12 13 14 16 17 18 20 22 24 25
29 36 32 32 30 30 34 31 31 30 27 24 23 18 17 17 18 18 17 16 14 16 17 16 15 15 15 12 12 16 16 17 16 15 14 12 10 8 7 6 6 7 9 11 12 14 16 17 19 20 22 24 26 27
23 25 27 26 22 20 22 21 20 20 18 18 14 13 13 15 16 15 15 15 14 16 18 17 17 16 15 17 21 21 19 16 16 15 13 10 7 6 4 5 7 9 11 13 15 16 18 19 21 22 24 26 27 29
15 17 18 20 21 20 19 19 20 20 20 17 17 17 16 16 15 15 16 17 17 17 17 16 15 16 20 20 19 19 15 14 13 14 12 9 9 8 8 10 11 13 15 17 20 22 22 23 24 25 27 28 30 31
16 16 17 17 17 17 18 19 18 17 17 16 16 15 15 14 13 14 15 17 18 16 14 15 18 21 19 18 17 16 14 14 14 13 12 12 13 15 16 17 18 19 21 23 25 27 27 28 28 29 29 30 32 33
8 10 11 12 14 15 16 16 16 16 15 15 14 13 14 14 15 16 17 17 17 17 18 20 21 21 18 17 17 16 16 16 16 16 17 18 18 19 20 22 23 24 27 29 30 31 31 31 31 31 31 32 34 34
10 10 10 11 12 13 13 13 14 15 15 16 16 15 15 16 17 16 14 13 14 17 18 20 22 22 20 20 19 18 18 18 18 18 18 19 21 22 23 25 28 30 32 33 32 32 31 30 31 32 33 34 35 35
14 14 15 16 16 16 16 16 17 17 17 18 18 18 16 15 13 11 12 14 16 17 19 19 21 21 20 18 18 18 18 18 18 19 20 22 24 26 28 31 33 33 31 29 29 29 30 32 34 35 37 38 39 39
16 19 19 19 19 19 19 19 19 18 17 17 17 16 15 14 14 13 13 16 17 18 20 20 19 20 21 22 23 23 25 26 25 25 26 28 29 31 31 29 28 27 27 28 29 31 33 35 38 40 41 42 41 40
15 17 18 19 20 20 21 20 20 19 19 19 18 19 20 20 21 18 18 20 20 21 23 24 25 26 26 26 26 25 24 25 26 27 27 26 25 24 24 25 25 25 26 29 32 35 38 40 42 42 44 43 41 39
15 14 14 15 16 19 21 24 26 27 27 26 25 25 26 26 25 24 23 23 24 25 26 26 26 26 27 27 27 26 26 26 25 23 22 22 22 23 23 24 25 29 33 36 39 41 41 39 39 40 38 36 33 30
25 24 23 22 22 21 21 21 21 22 23 24 25 28 31 30 29 28 29 30 31 29 29 28 28 27 26 26 26 25 24 22 21 21 21 21 22 24 27 31 33 36 38 38 34 32 34 36 37 37 35 29 27 28
34 34 33 32 31 30 28 27 27 27 27 26 25 26 27 27 30 31 31 32 32 32 29 28 29 29 27 26 23 22 21 21 21 22 23 25 27 30 31 33 35 35 34 32 32 34 35 37 36 34 30 27 27 29
37 38 38 38 38 37 36 34 33 33 32 32 31 30 30 29 29 28 28 28 30 31 31 29 28 27 25 24 23 23 23 22 23 25 27 28 29 31 33 34 34 34 35 36 38 39 40 37 32 28 24 23 26 27
28 35 41 42 41 41 41 41 40 37 36 36 34 33 31 30 30 30 29 29 29 29 29 29 28 26 25 24 23 23 24 25 26 27 27 28 30 33 35 35 37 38 39 41 43 41 37 31 25 20 20 22 24 26
32 33 32 31 35 42 45 45 44 43 42 41 38 35 32 30 28 27 25 25 25 26 27 26 27 28 28 26 25 26 27 27 27 28 30 31 33 35 36 39 40 41 43 43 40 35 29 23 19 19 21 23 25 29
33 36 38 38 39 38 35 36 41 46 46 44 43 42 40 38 36 33 31 30 30 30 31 32 32 33 32 32 31 31 30 31 32 33 32 33 35 36 40 41 42 43 40 35 29 25 21 19 19 21 23 26 28 31
Wind_Direction
283 285 268 264 260 242 224 216 221 223 233 242 219 212 212 217 223 224 219 220 222 209 207 209 214 220 219 220 217 216 220 222 223 225 230 237 241 245 247 247 246 249 254 257 260 269 269 261 258 262 270 274 272 275
279 293 283 244 213 205 206 213 214 217 231 240 219 212 213 215 222 223 220 215 211 216 216 219 223 233 215 214 212 217 220 225 228 229 231 234 236 239 244 247 247 248 255 258 250 260 247 257 261 271 264 263 273 277
273 293 306 212 204 204 203 204 217 222 227 229 212 209 206 210 216 218 221 224 223 220 213 213 222 218 223 209 203 212 210 210 224 230 231 232 233 236 234 225 234 234 240 239 240 244 246 260 266 261 261 266 273 278
264 261 253 161 188 198 200 206 209 217 222 218 209 204 208 211 216 220 216 214 217 210 206 209 217 215 218 206 197 212 220 228 226 229 233 234 236 233 235 232 241 235 231 233 230 237 243 249 262 264 269 273 279 284
261 251 228 210 199 196 204 214 218 218 215 211 205 202 205 204 198 199 203 210 211 213 212 209 209 211 217 207 223 206 212 216 227 226 229 234 235 242 238 235 239 248 250 236 234 233 233 244 257 261 271 276 280 279
245 243 227 210 212 208 206 203 199 194 186 184 189 192 196 197 203 202 205 210 214 213 209 207 214 223 224 217 204 207 219 218 227 226 225 227 227 221 225 238 228 248 244 236 234 239 242 248 260 266 276 280 273 271
237 229 222 212 194 196 195 188 183 181 183 181 183 185 186 190 191 194 207 206 202 213 219 222 217 219 225 226 219 219 217 226 224 225 220 212 203 206 225 215 224 247 248 237 242 244 251 255 263 275 276 268 265 271
223 217 213 207 194 177 173 173 174 173 169 169 177 179 183 186 186 183 175 179 175 174 185 212 205 205 204 226 222 217 218 218 215 224 227 199 197 221 222 222 224 233 245 232 240 252 257 261 265 263 260 260 269 275
221 216 209 202 196 182 169 163 155 158 165 167 162 163 148 128 128 138 160 169 180 193 193 196 188 193 203 194 198 203 206 213 224 230 226 227 228 227 229 226 229 242 232 240 254 253 259 256 251 252 257 267 277 284
206 208 201 198 191 189 178 166 158 151 154 153 151 142 136 135 132 134 135 159 186 191 188 173 225 238 185 184 198 207 200 185 209 222 225 232 215 223 217 223 229 239 246 254 247 250 247 244 246 259 271 279 286 290
205 190 196 192 188 182 176 171 161 155 147 159 147 151 155 151 145 151 149 176 194 167 173 133 162 161 184 182 186 198 208 215 223 221 232 237 227 225 216 229 230 233 239 236 230 231 237 254 263 272 280 287 291 293
184 183 185 181 186 176 173 173 169 163 162 157 150 158 168 172 164 162 159 178 175 163 133 134 134 152 169 182 181 182 192 200 211 223 225 226 226 223 222 230 233 230 218 212 216 239 250 260 272 282 290 292 293 296
161 168 166 170 175 174 175 174 167 158 161 165 172 173 176 178 177 168 162 158 142 129 144 147 151 167 170 176 183 186 192 204 213 216 225 212 205 204 206 211 192 185 198 217 229 241 257 272 284 288 290 293 297 301
124 138 155 164 166 165 170 162 150 153 155 157 163 168 176 168 167 164 162 160 148 150 158 163 152 169 189 190 203 219 226 226 227 223 232 242 215 193 171 172 183 196 210 221 236 255 271 283 290 293 295 297 299 302
111 118 126 137 142 146 150 149 149 151 154 160 160 167 167 160 161 153 158 165 163 169 169 173 185 209 234 231 234 235 231 240 237 226 217 182 169 172 176 184 197 210 223 239 256 271 284 291 296 298 298 301 304 303
94 108 121 128 134 139 136 128 136 146 154 154 153 166 161 160 163 161 170 186 205 208 212 216 245 292 262 226 243 231 219 232 204 189 172 173 176 181 193 203 213 224 239 259 272 278 282 289 294 299 301 302 302 303
92 94 108 118 125 128 132 126 132 140 142 143 145 152 155 163 173 186 201 215 225 230 238 246 260 283 260 267 252 217 219 183 175 173 174 183 194 196 203 214 228 247 260 269 276 283 290 294 295 297 300 302 302 302
82 90 99 109 112 114 129 133 138 136 135 134 138 148 165 179 191 204 215 224 230 238 246 252 266 278 264 248 217 200 176 174 176 181 187 191 200 216 225 234 254 272 278 285 293 299 301 301 299 297 297 299 300 301
90 92 96 100 109 108 111 116 119 122 128 136 143 157 178 192 198 204 213 220 232 242 248 254 256 249 230 203 186 178 176 180 186 189 191 193 202 210 226 264 286 296 300 305 309 307 304 303 302 300 297 297 298 299
94 101 112 120 126 129 133 138 142 148 156 162 171 177 186 195 205 212 220 226 237 247 246 240 234 214 195 190 186 184 187 194 204 206 205 215 228 246 265 280 290 299 303 306 308 307 305 302 301 298 298 299 298 297
111 111 112 117 124 133 141 148 157 167 176 185 190 188 195 204 216 225 228 234 243 247 227 221 214 200 194 194 199 203 211 221 223 228 237 249 256 267 278 286 292 296 300 302 303 304 303 301 300 299 299 297 296 296
157 157 153 155 160 164 170 179 188 195 197 200 207 217 226 231 234 236 238 242 245 234 216 212 210 203 204 208 214 218 226 231 234 238 246 256 266 275 279 284 290 294 296 298 300 300 300 300 299 298 297 297 296 297
223 219 221 220 218 222 217 223 225 231 237 244 247 247 254 255 252 245 237 234 225 220 217 216 214 212 216 222 226 232 240 244 246 250 258 265 271 275 281 284 290 294 294 295 297 298 300 299 297 296 296 297 297 297
255 250 245 245 252 247 250 246 248 252 252 249 251 252 247 237 230 222 226 229 227 228 229 230 229 231 231 233 238 242 247 251 255 260 265 270 274 278 283 287 289 289 291 295 296 297 297 295 295 296 296 296 297 297
251 257 261 265 264 261 259 257 256 255 253 248 246 245 239 239 237 234 231 232 231 229 228 229 231 233 236 241 246 249 253 258 262 265 271 275 278 281 283 284 288 292 295 296 296 296 296 295 295 295 296 297 298 297
259 260 258 257 256 256 254 255 255 251 246 245 243 242 242 243 243 237 234 239 241 242 242 243 244 247 251 255 259 262 265 267 270 273 276 278 280 283 287 290 293 295 295 296 296 297 298 298 297 297 295 294 293 293
265 262 259 258 257 258 259 257 258 258 258 255 251 250 249 249 246 243 241 241 245 248 250 251 254 257 260 263 266 267 269 270 270 271 273 277 280 284 288 291 294 297 298 301 304 304 302 299 297 297 301 303 302 303
257 257 259 262 262 261 260 258 259 259 258 258 257 253 252 251 252 250 248 249 249 253 255 256 258 260 263 265 265 263 261 262 265 270 275 279 281 285 291 297 301 306 310 310 305 300 299 301 300 298 296 295 294 293
253 252 254 257 260 261 261 261 259 258 256 254 252 252 253 252 251 250 250 252 251 252 252 255 261 262 260 256 253 253 257 262 268 272 275 281 289 295 299 303 308 312 309 307 303 306 306 303 301 299 293 286 286 293
257 257 257 257 257 257 258 259 259 259 260 260 258 256 255 254 254 255 254 253 251 252 255 255 253 249 246 246 249 254 262 267 270 276 283 289 293 297 301 306 310 310 308 307 308 307 305 305 302 295 288 287 288 293
270 263 259 258 256 256 256 255 254 254 255 258 260 260 259 259 257 256 254 253 251 248 246 242 240 240 243 248 255 260 263 269 276 281 288 293 298 302 305 308 310 308 307 306 307 305 303 299 292 282 282 286 293 301
274 269 268 266 261 257 255 254 254 253 251 251 252 254 256 257 256 256 253 250 248 247 243 239 241 245 250 254 256 260 266 270 275 282 289 294 299 303 304 307 307 306 307 306 304 302 298 290 276 273 281 291 299 303
283 278 274 268 264 260 260 259 254 250 249 249 247 247 248 249 250 251 250 248 247 246 247 249 251 255 255 254 257 262 267 272 280 284 289 293 301 304 305 305 306 308 308 305 301 298 290 275 269 278 289 298 303 305